TimeCST,TemperatureF,Dew PointF,Humidity,Sea Level PressureIn,VisibilityMPH,Wind Direction,Wind SpeedMPH,Gust SpeedMPH,PrecipitationIn,Events,Conditions,WindDirDegrees,DateUTC
12:35 AM,35.6,15.8,44,30.24,10.0,North,12.7,-,N/A,,Clear,10,2013-01-21 06:35:00
12:55 AM,35.6,15.8,44,30.25,10.0,North,10.4,16.1,N/A,,Clear,360,2013-01-21 06:55:00
1:55 AM,30.2,12.2,47,30.27,10.0,North,9.2,-,N/A,,Clear,360,2013-01-21 07:55:00
2:15 AM,30.2,12.2,47,30.29,10.0,North,6.9,-,N/A,,Clear,350,2013-01-21 08:15:00
2:55 AM,30.2,12.2,47,30.30,10.0,North,5.8,-,N/A,,Clear,360,2013-01-21 08:55:00
3:15 AM,30.2,12.2,47,30.30,10.0,North,5.8,-,N/A,,Clear,360,2013-01-21 09:15:00
3:36 AM,30.2,10.4,44,30.31,10.0,North,6.9,-,N/A,,Clear,350,2013-01-21 09:36:00
4:55 AM,28.4,8.6,43,30.33,10.0,NNW,3.5,-,N/A,,Clear,340,2013-01-21 10:55:00
5:15 AM,26.6,10.4,51,30.34,10.0,NNW,3.5,-,N/A,,Clear,340,2013-01-21 11:15:00
5:55 AM,26.6,10.4,51,30.34,10.0,NNW,4.6,-,N/A,,Clear,340,2013-01-21 11:55:00
6:15 AM,26.6,10.4,51,30.34,10.0,Calm,Calm,-,N/A,,Clear,0,2013-01-21 12:15:00
6:35 AM,26.6,10.4,51,30.34,10.0,Calm,Calm,-,N/A,,Clear,0,2013-01-21 12:35:00
6:55 AM,26.6,10.4,51,30.35,10.0,North,3.5,-,N/A,,Clear,350,2013-01-21 12:55:00
7:15 AM,24.8,10.4,54,30.35,10.0,North,4.6,-,N/A,,Clear,350,2013-01-21 13:15:00
7:35 AM,26.6,10.4,51,30.35,10.0,North,5.8,-,N/A,,Clear,360,2013-01-21 13:35:00
7:56 AM,26.6,10.4,51,30.36,10.0,North,5.8,-,N/A,,Clear,10,2013-01-21 13:56:00
8:15 AM,26.6,10.4,51,30.37,10.0,North,8.1,-,N/A,,Clear,10,2013-01-21 14:15:00
8:35 AM,26.6,10.4,51,30.37,10.0,NNE,6.9,-,N/A,,Clear,20,2013-01-21 14:35:00
9:15 AM,28.4,12.2,51,30.38,10.0,North,5.8,-,N/A,,Clear,360,2013-01-21 15:15:00
9:35 AM,28.4,12.2,51,30.38,10.0,North,5.8,-,N/A,,Clear,360,2013-01-21 15:35:00
10:55 AM,32.0,12.2,44,30.37,10.0,NW,6.9,-,N/A,,Clear,320,2013-01-21 16:55:00
11:15 AM,32.0,10.4,41,30.37,10.0,NW,8.1,-,N/A,,Clear,310,2013-01-21 17:15:00
11:55 AM,33.8,10.4,38,30.36,10.0,North,12.7,18.4,N/A,,Clear,350,2013-01-21 17:55:00
12:55 PM,35.6,10.4,35,30.34,10.0,NNE,8.1,-,N/A,,Clear,30,2013-01-21 18:55:00
2:15 PM,39.2,12.2,33,30.30,10.0,North,9.2,-,N/A,,Clear,10,2013-01-21 20:15:00
2:55 PM,39.2,12.2,33,30.31,10.0,NW,10.4,-,N/A,,Clear,320,2013-01-21 20:55:00
3:15 PM,39.2,12.2,33,30.31,10.0,NW,5.8,-,N/A,,Clear,320,2013-01-21 21:15:00
3:55 PM,39.2,12.2,33,30.31,10.0,NNW,10.4,-,N/A,,Clear,330,2013-01-21 21:55:00
4:15 PM,39.2,12.2,33,30.31,10.0,NW,8.1,-,N/A,,Clear,320,2013-01-21 22:15:00
4:55 PM,37.4,12.2,36,30.31,10.0,NW,8.1,-,N/A,,Clear,310,2013-01-21 22:55:00
5:15 PM,35.6,12.2,38,30.31,10.0,NW,5.8,-,N/A,,Clear,320,2013-01-21 23:15:00
5:55 PM,33.8,12.2,41,30.30,10.0,NNW,4.6,-,N/A,,Clear,340,2013-01-21 23:55:00
6:15 PM,33.8,12.2,41,30.30,10.0,North,4.6,-,N/A,,Clear,350,2013-01-22 00:15:00
6:35 PM,33.8,12.2,41,30.30,10.0,North,6.9,-,N/A,,Clear,360,2013-01-22 00:35:00
7:15 PM,32.0,12.2,44,30.30,10.0,North,4.6,-,N/A,,Clear,10,2013-01-22 01:15:00
7:36 PM,30.2,12.2,47,30.30,10.0,North,5.8,-,N/A,,Clear,10,2013-01-22 01:36:00
7:55 PM,30.2,12.2,47,30.31,10.0,North,3.5,-,N/A,,Clear,360,2013-01-22 01:55:00
8:15 PM,30.2,12.2,47,30.31,10.0,North,4.6,-,N/A,,Clear,350,2013-01-22 02:15:00
9:15 PM,28.4,12.2,51,30.33,10.0,North,4.6,-,N/A,,Clear,350,2013-01-22 03:15:00
10:35 PM,26.6,10.4,51,30.34,10.0,North,4.6,-,N/A,,Clear,10,2013-01-22 04:35:00
10:55 PM,26.6,10.4,51,30.34,10.0,North,4.6,-,N/A,,Clear,10,2013-01-22 04:55:00
11:15 PM,26.6,10.4,51,30.34,10.0,Calm,Calm,-,N/A,,Clear,0,2013-01-22 05:15:00
11:16 PM,26.6,10.4,51,30.34,10.0,Calm,Calm,-,N/A,,Clear,0,2013-01-22 05:16:00
11:35 PM,26.6,10.4,51,30.33,10.0,Calm,Calm,-,N/A,,Clear,0,2013-01-22 05:35:00
11:55 PM,26.6,8.6,47,30.34,10.0,Calm,Calm,-,N/A,,Clear,0,2013-01-22 05:55:00